Regional Weather Roundup
Issued by NWS State College, PA

Home | Current Version | Previous Version | Text Only | Print | Product List | Glossary On
Versions: 1 2 3 4 5 6 7 8 9 10 11 12 13 14 15 16 17 18 19 20 21 22 23 24 25 26 27 28 29 30 31 32 33 34 35 36 37 38 39 40 41 42 43 44 45 46 47 48 49 50
000
ASUS41 KCTP 271103
RWRCTP

REGIONAL WEATHER ROUNDUP
NATIONAL WEATHER SERVICE STATE COLLEGE PA
700 AM EDT MON MAR 27 2017

Note: "fair" indicates few or no clouds below 12,000 feet with no
significant weather and/or obstructions to visibility.

* = STATION THAT DOES NOT REPORT PRECIPITATION /E.G. RAIN...SNOW...ETC/
    THUNDER OR FOG.

PAZ002>004-007>009-013>016-020>023-029>032-271200-
WESTERN PENNSYLVANIA

CITY           SKY/WX    TMP DP  RH WIND       PRES   REMARKS
ERIE           CLOUDY    52  50  93 S8        29.90R
MEADVILLE      CLOUDY    52  32  46 SW7       29.92R
FRANKLIN*      CLOUDY    50  46  87 SW7       29.95R
NEW CASTLE     CLOUDY    54  52  93 SW5       29.96R
BEAVER COUNTY  NOT AVBL
BUTLER*        CLEAR     52  50  93 SW5       29.97R
PITTSBURGH INT MOCLDY    55  54  96 SW6       29.96R
PITTSBURGH     CLOUDY    54  51  90 S8        29.96R
INDIANA*       CLOUDY    50  48  93 S6        29.99S
LATROBE        MOCLDY    55  55 100 SW9       29.97S
WASHINGTON CO* MOCLDY    55  54  94 SW6       29.99R
$$

PAZ004>006-010>012-017>019-024>028-033>037-041-042-045-046-049>053-271200-
CENTRAL PENNSYLVANIA

CITY           SKY/WX    TMP DP  RH WIND       PRES   REMARKS
BRADFORD       CLOUDY    42  42 100 S5        29.94R
DUBOIS         CLOUDY    45  43  93 VRB3      29.95R
CLEARFIELD       N/A    N/A N/A N/A MISG      29.99F
JOHNSTOWN      LGT RAIN  46  45  96 S8        29.98S
ALTOONA        LGT RAIN  45  44  97 S3        30.03R FOG
STATE COLLEGE  CLOUDY    41  39  93 CALM      30.03F
WILLIAMSPORT   CLOUDY    41  38  89 E6        30.06F
SELINSGROVE    CLOUDY    41  39  93 CALM      30.09S
FT INDIANTOWN  CLOUDY    39  39 100 NE3       30.09F FOG
CAPITAL CITY   CLOUDY    43  39  86 E5        30.09S FOG
HARRISBURG     CLOUDY    42  42 100 E5        30.09S
YORK           CLOUDY    42  42 100 CALM      30.08S
$$

PAZ038>040-043-044-047-048-054-055-060>062-067>071-271200-
EASTERN PENNSYLVANIA

CITY           SKY/WX    TMP DP  RH WIND       PRES   REMARKS
SCRANTON       LGT RAIN  39  39 100 CALM      30.05R FOG
MOUNT POCONO   MIX PCPN  32  32 100 SE6       30.04F FOG
ALLENTOWN      RAIN      40  37  89 CALM      30.11S FOG
QUAKERTOWN*    CLOUDY    39  39 100 CALM      30.11R
READING        LGT RAIN  41  41 100 NW5       30.10S
LANCASTER      CLOUDY    42  42 100 NE3       30.09F FOG
COATESVILLE    LGT RAIN  41  41 100 CALM      30.11R VSB<1/4
POTTSTOWN      LGT RAIN  39  39 100 CALM      30.11F VSB 1
BLUE BELL      CLOUDY    39  39 100 CALM      30.09F VSB 1/2
DOYLESTOWN     CLOUDY    39  39 100 E3        30.09F FOG
WILLOW GROVE   NOT AVBL
NORTH PHILA    LGT RAIN  43  42  97 E6        30.12F VSB 3/4
PHILADELPHIA   FOG       43  42  97 E6        30.11F VSB 3/4
$$




USA.gov is the U.S. government's official web portal to all federal, state and local government web resources and services.